NOAA 16 DEB

Satellite information

Favourite Embed

Satellite Type and Status

DEBRISIN ORBIT

Key statistics

Satellite NOAA 16 DEB at a glance.

Uptime

9158

Days in orbit

Revolutions

≈ 14.3

Per day

Orbit

SSO

Sun Synchronous Orbit

Inclination

98.7

Latest

Satellite identification and parameters

Extended collection of information and parameters for NOAA 16 DEB.

Object identification

Identified? True

Debris? True

Object name: NOAA 16 DEB

International designator: 2000-055KW

Object number (NORAD): 41417

Object ID (CCSDS): 41417

Country: UNITED STATES OF AMERICA (US)

Current information (Y/N): Y

RCS size: SMALL

Orbital parameters

Period: 100.716 minutes

Inclination: 98.7376 deg

SMA: 7170.674 km

Apoapsis: 804.424 km

Periapsis: 780.654 km

RAAN: 17.0352 deg

Eccentricy: 0.00165744

Argument of periapsis: 323.1911 deg

Mean anomaly: 36.8132 deg

Mean motion: 14.29758927 rev/day

Mean motion (dot): 0.00006522 rev/day2

B* drag term: 0.0025519774 1/REarth

Two-line elements (TLE)

Creation date: Oct. 18, 2025, 2:17 a.m.

Reference frame: TEME

Reference center: EARTH

Epoch: Oct. 17, 2025, 12:28 p.m. UTC

TLE line 0: 0 NOAA 16 DEB

TLE line 1: 1 41417U 00055KW 25290.51948357 .00006522 00000-0 25520-2 0 9998

TLE line 2: 2 41417 98.7376 17.0352 0016574 323.1911 36.8132 14.29758927498581

Live tracking on map

Real-time ground track for satellite NOAA 16 DEB.

In-orbit conjunctions

A list of the most updated potential collisions computed for object NOAA 16 DEB.

Target Orbit TCA Probability of collision Miss distance Type
CZ-6A DEB LEO 2024-11-16 04:15:52 0.0001628227 799.0 (m) DEBRIS
CZ-6A DEB LEO 2024-11-15 09:43:39 0.000125901 526.0 (m) DEBRIS
FENGYUN 1C DEB SSO 2024-11-13 03:59:11 0.0004300431 493.0 (m) DEBRIS

Associated space launch

The NOAA K, L and M POES satellites begin the fifth generation of improved environmental monitoring in support of NOAA missions. The instrument payload has significant improvements and additions/deletions. The instrument changes have effected the spacecraft subsystems and data formats.

NOAA 16 DEB was lifted into orbit during the mission ‘Titan II SLV | NOAA 16’, on board a Titan II SLV space rocket.

The launch took place on Sept. 21, 2000, 10:22 a.m. from Space Launch Complex 4W.

For more information about the launch, click the button.

Launch to space Titan II SLV | NOAA 16
Titan II SLV | NOAA 16

Agency: N/A

Status: Launch Successful

Launch date: Sept. 21, 2000, 10:22 a.m. UTC

Rocket: Titan II SLV

Launch pad: Space Launch Complex 4W

Location: Vandenberg SFB, CA, USA

...

Latest news about this satellite

There are no fresh news available about this satellite. Check back as we update our databases every day.


Newsletter sign-up

Weekly statistics, charts and insights to help you stay on top of the space industry.